Weather History for Nebraska City, NE

Change the Weather History Date:

Saturday, July 6, 2013

  Actual Average (KSDA) Record (KSDA)
Temperature  
Mean Temperature 78 °F -  
Max Temperature 88 °F 86 °F 103 °F (1954)
Min Temperature 68 °F 64 °F 51 °F (1950)
Cooling Degree Days 12    
Growing Degree Days 28 (Base 50)    
Moisture  
Dew Point 63 °F    
Average Humidity 64    
Maximum Humidity 79    
Minimum Humidity 46    
Precipitation  
Precipitation 0.00 in - - ()
Sea Level Pressure  
Sea Level Pressure 29.88 in    
Wind  
Wind Speed 12 mph (South)    
Max Wind Speed 22 mph    
Max Gust Speed 25 mph    
Visibility 10 miles    
Events      
Averages and records for this station are not official NWS values.
T = Trace of Precipitation, MM = Missing Value Source: NWS Daily Summary

Daily Weather History Graph

Daily Weather History Graph

Search for Another Location

Airport:

Trip Planner

Search our weather history database for the weather conditions in past years. The results will help you decide how hot, cold, wet, or windy it might be!

Date:

Astronomy

Jul. 06, 2013 Rise Set
Actual Time 5:59 AM CDT 8:56 PM CDT
Civil Twilight 5:26 AM CDT 9:29 PM CDT
Nautical Twilight 4:44 AM CDT 10:11 PM CDT
Astronomical Twilight 3:56 AM CDT 10:59 PM CDT
Moon 4:46 AM CDT (7/6) 7:39 PM CDT (7/6)
Length of Visible Light 16h 03m
Length of Day
14h 57m
Waning Crescent, 2% of the Moon is Illuminated
Jul 6
Waning Crescent
Jul 8
New
Jul 15
First Quarter
Jul 22
Full
Jul 29
Last Quarter

Hourly Weather History & Observations

Time (CDT) Temp. Heat Index Dew Point Humidity Pressure Visibility Wind Dir Wind Speed Gust Speed Precip Events Conditions
12:15 AM 74.5 °F - 60.3 °F 61% 29.89 in 10.0 mi South 11.5 mph - N/A   Clear
12:35 AM 74.7 °F - 60.1 °F 60% 29.90 in 10.0 mi South 12.7 mph - N/A   Clear
12:55 AM 74.1 °F - 60.1 °F 61% 29.90 in 10.0 mi South 11.5 mph - N/A   Clear
1:15 AM 73.2 °F - 60.1 °F 63% 29.90 in 10.0 mi South 9.2 mph - N/A   Clear
1:35 AM 72.7 °F - 60.1 °F 64% 29.90 in 10.0 mi SSE 10.4 mph - N/A   Clear
1:55 AM 72.0 °F - 60.3 °F 67% 29.90 in 10.0 mi South 11.5 mph - N/A   Clear
2:15 AM 71.8 °F - 60.3 °F 67% 29.90 in 10.0 mi South 11.5 mph - N/A   Clear
2:35 AM 71.2 °F - 60.3 °F 68% 29.90 in 10.0 mi South 11.5 mph - N/A   Clear
2:55 AM 70.9 °F - 60.4 °F 69% 29.90 in 10.0 mi SSE 10.4 mph - N/A   Clear
3:15 AM 70.9 °F - 60.3 °F 69% 29.91 in 10.0 mi South 10.4 mph - N/A   Clear
3:35 AM 70.2 °F - 60.4 °F 71% 29.90 in 10.0 mi South 10.4 mph - N/A   Clear
3:55 AM 69.4 °F - 60.4 °F 73% 29.91 in 10.0 mi South 10.4 mph - N/A   Clear
4:15 AM 69.1 °F - 60.8 °F 75% 29.90 in 10.0 mi South 9.2 mph - N/A   Clear
4:35 AM 68.9 °F - 60.8 °F 75% 29.90 in 10.0 mi South 9.2 mph - N/A   Clear
4:55 AM 68.2 °F - 61.0 °F 78% 29.91 in 10.0 mi South 8.1 mph - N/A   Clear
5:15 AM 68.0 °F - 61.2 °F 79% 29.91 in 10.0 mi South 9.2 mph - N/A   Clear
5:35 AM 68.7 °F - 61.2 °F 77% 29.91 in 10.0 mi SSE 11.5 mph - N/A   Clear
5:55 AM 68.9 °F - 61.2 °F 76% 29.91 in 10.0 mi SSE 11.5 mph - N/A   Clear
6:15 AM 68.5 °F - 61.2 °F 77% 29.92 in 10.0 mi SSE 9.2 mph - N/A   Clear
6:35 AM 68.9 °F - 61.2 °F 76% 29.91 in 10.0 mi South 10.4 mph - N/A   Clear
6:55 AM 69.6 °F - 61.3 °F 75% 29.91 in 10.0 mi South 11.5 mph - N/A   Clear
7:15 AM 70.7 °F - 61.7 °F 73% 29.90 in 10.0 mi South 12.7 mph - N/A   Scattered Clouds
7:35 AM 72.0 °F - 62.1 °F 71% 29.90 in 10.0 mi South 13.8 mph 17.3 mph N/A   Mostly Cloudy
7:55 AM 72.1 °F - 61.9 °F 70% 29.90 in 10.0 mi South 13.8 mph - N/A   Scattered Clouds
8:15 AM 72.0 °F - 62.1 °F 71% 29.90 in 10.0 mi South 15.0 mph - N/A   Scattered Clouds
8:35 AM 74.3 °F - 63.1 °F 68% 29.90 in 10.0 mi South 12.7 mph - N/A   Clear
8:55 AM 75.4 °F - 63.3 °F 66% 29.90 in 10.0 mi South 15.0 mph - N/A   Scattered Clouds
9:15 AM 76.1 °F - 63.0 °F 64% 29.89 in 10.0 mi South 16.1 mph 21.9 mph N/A   Clear
9:35 AM 78.3 °F - 63.9 °F 61% 29.89 in 10.0 mi South 19.6 mph 24.2 mph N/A   Clear
9:55 AM 78.4 °F - 63.7 °F 60% 29.88 in 10.0 mi South 17.3 mph 24.2 mph N/A   Clear
10:15 AM 79.7 °F - 64.9 °F 61% 29.88 in 10.0 mi South 16.1 mph 20.7 mph N/A   Clear
10:35 AM 80.4 °F 82.2 °F 65.1 °F 59% 29.88 in 10.0 mi South 13.8 mph 21.9 mph N/A   Clear
10:55 AM 82.2 °F 84.6 °F 66.4 °F 59% 29.88 in 10.0 mi SSE 15.0 mph 20.7 mph N/A   Clear
11:15 AM 82.0 °F 84.3 °F 66.4 °F 59% 29.88 in 10.0 mi South 15.0 mph - N/A   Clear
11:35 AM 84.6 °F 85.6 °F 63.3 °F 49% 29.88 in 10.0 mi SSW 18.4 mph 25.3 mph N/A   Clear
11:55 AM 82.6 °F 83.6 °F 62.8 °F 51% 29.88 in 10.0 mi South 21.9 mph 25.3 mph N/A   Clear
12:15 PM 81.9 °F 83.2 °F 63.5 °F 54% 29.88 in 10.0 mi South 13.8 mph 24.2 mph N/A   Clear
12:35 PM 84.4 °F 85.9 °F 64.2 °F 51% 29.88 in 10.0 mi South 15.0 mph - N/A   Clear
12:55 PM 85.1 °F 86.4 °F 64.2 °F 49% 29.87 in 10.0 mi South 17.3 mph - N/A   Clear
1:15 PM 86.4 °F 88.1 °F 64.9 °F 49% 29.87 in 10.0 mi South 17.3 mph - N/A   Clear
1:35 PM 86.4 °F 88.1 °F 65.1 °F 49% 29.87 in 10.0 mi South 13.8 mph - N/A   Clear
1:55 PM 87.3 °F 88.9 °F 64.6 °F 47% 29.86 in 10.0 mi SSW 16.1 mph 21.9 mph N/A   Clear
2:15 PM 87.8 °F 89.4 °F 64.8 °F 46% 29.87 in 10.0 mi South 15.0 mph 24.2 mph N/A   Clear
2:35 PM 85.1 °F 86.6 °F 64.8 °F 50% 29.87 in 10.0 mi South 17.3 mph 25.3 mph N/A   Clear
2:55 PM 84.0 °F 85.6 °F 64.8 °F 52% 29.87 in 10.0 mi South 19.6 mph 23.0 mph N/A   Clear
3:15 PM 84.2 °F 85.8 °F 64.6 °F 52% 29.88 in 10.0 mi SSW 16.1 mph 21.9 mph N/A   Clear
3:35 PM 83.8 °F 85.1 °F 64.0 °F 51% 29.87 in 10.0 mi South 17.3 mph - N/A   Clear
3:55 PM 83.8 °F 85.3 °F 64.4 °F 52% 29.86 in 10.0 mi South 18.4 mph 23.0 mph N/A   Clear
4:15 PM 82.9 °F 84.4 °F 64.2 °F 53% 29.86 in 10.0 mi South 20.7 mph - N/A   Clear
4:35 PM 83.5 °F 85.1 °F 64.9 °F 53% 29.86 in 10.0 mi South 17.3 mph - N/A   Clear
4:55 PM 82.4 °F 84.2 °F 65.3 °F 56% 29.86 in 10.0 mi South 15.0 mph - N/A   Clear
5:15 PM 82.8 °F 84.9 °F 66.0 °F 57% 29.86 in 10.0 mi South 12.7 mph 19.6 mph N/A   Clear
5:35 PM 82.2 °F 84.4 °F 66.2 °F 58% 29.86 in 10.0 mi South 11.5 mph - N/A   Clear
5:55 PM 81.9 °F 84.2 °F 66.6 °F 60% 29.85 in 10.0 mi SSE 11.5 mph - N/A   Clear
6:15 PM 82.4 °F 84.8 °F 66.9 °F 59% 29.85 in 10.0 mi SSE 11.5 mph - N/A   Clear
6:35 PM 81.9 °F 84.1 °F 66.0 °F 59% 29.84 in 10.0 mi SSE 15.0 mph 20.7 mph N/A   Clear
6:55 PM 81.5 °F 83.6 °F 66.0 °F 59% 29.84 in 10.0 mi SSE 13.8 mph - N/A   Clear
7:15 PM 80.8 °F 82.8 °F 65.7 °F 60% 29.84 in 10.0 mi South 13.8 mph 19.6 mph N/A   Clear
7:35 PM 80.1 °F 82.1 °F 66.0 °F 62% 29.85 in 10.0 mi South 13.8 mph - N/A   Clear
7:55 PM 79.5 °F - 65.5 °F 62% 29.85 in 10.0 mi SSE 11.5 mph - N/A   Clear
8:15 PM 78.4 °F - 65.3 °F 64% 29.85 in 10.0 mi SSE 10.4 mph - N/A   Clear
8:35 PM 77.7 °F - 65.3 °F 65% 29.85 in 10.0 mi South 9.2 mph - N/A   Clear
8:55 PM 76.5 °F - 64.9 °F 67% 29.85 in 10.0 mi SSE 10.4 mph - N/A   Clear
9:15 PM 75.4 °F - 64.9 °F 70% 29.85 in 10.0 mi South 9.2 mph - N/A   Clear
9:35 PM 75.2 °F - 64.8 °F 70% 29.86 in 10.0 mi South 9.2 mph - N/A   Clear
9:55 PM 75.0 °F - 64.8 °F 70% 29.87 in 10.0 mi SSE 8.1 mph - N/A   Clear
10:15 PM 74.3 °F - 64.8 °F 72% 29.88 in 10.0 mi SSE 8.1 mph - N/A   Clear
10:35 PM 73.8 °F - 65.3 °F 75% 29.88 in 10.0 mi South 9.2 mph - N/A   Clear
10:55 PM 73.6 °F - 65.1 °F 75% 29.89 in 10.0 mi South 8.1 mph - N/A   Clear
11:15 PM 72.7 °F - 65.5 °F 78% 29.89 in 10.0 mi South 8.1 mph - N/A   Clear
11:35 PM 72.5 °F - 65.3 °F 78% 29.89 in 10.0 mi South 8.1 mph - N/A   Clear
11:55 PM 72.5 °F - 64.9 °F 77% 29.89 in 10.0 mi South 9.2 mph - N/A   Clear